Weather History for Greensboro, NC

Change the Weather History Date:

Monday, September 26, 2011

  Actual Average Record
Temperature  
Mean Temperature 70 °F 66 °F  
Max Temperature 78 °F 76 °F 93 °F (1986)
Min Temperature 61 °F 56 °F 37 °F (1950)
Degree Days  
Heating Degree Days 0 2  
Month to date heating degree days 20 19  
Since 1 July heating degree days 20 20  
Cooling Degree Days 5 3  
Month to date cooling degree days 188 172  
Year to date cooling degree days 1760 1434  
Growing Degree Days 20 (Base 50)    
Moisture  
Dew Point 66 °F    
Average Humidity 81    
Maximum Humidity 93    
Minimum Humidity 69    
Precipitation  
Precipitation T in 0.12 in 3.71 in (1956)
Month to date precipitation 6.82 3.70  
Year to date precipitation 29.04 32.49  
Sea Level Pressure  
Sea Level Pressure 29.95 in    
Wind  
Wind Speed 6 mph (South)    
Max Wind Speed 14 mph    
Max Gust Speed 30 mph    
Visibility 10 miles    
Events Fog    
T = Trace of Precipitation, MM = Missing Value Source: NWS Daily Summary

Daily Weather History Graph

Daily Weather History Graph

Search for Another Location

Airport:

Trip Planner

Search our weather history database for the weather conditions in past years. The results will help you decide how hot, cold, wet, or windy it might be!

Date:

Astronomy

Sep. 26, 2011 Rise Set
Actual Time 7:10 AM EDT 7:11 PM EDT
Civil Twilight 6:45 AM EDT 7:36 PM EDT
Nautical Twilight 6:15 AM EDT 8:06 PM EDT
Astronomical Twilight 5:45 AM EDT 8:36 PM EDT
Moon 6:08 AM EDT (9/26) 6:26 PM EDT (9/26)
Length of Visible Light 12h 51m
Length of Day
12h 00m
Waning Crescent, 1% of the Moon is Illuminated
Sep 26
Waning Crescent
Sep 27
New
Oct 3
First Quarter
Oct 11
Full
Oct 19
Last Quarter

Hourly Weather History & Observations

Time (EDT) Temp. Dew Point Humidity Pressure Visibility Wind Dir Wind Speed Gust Speed Precip Events Conditions
12:04 AM 69.8 °F 66.2 °F 88% 29.99 in 10.0 mi South 4.6 mph - N/A   Mostly Cloudy
12:11 AM 69.8 °F 66.2 °F 88% 30.00 in 10.0 mi SW 6.9 mph - N/A   Mostly Cloudy
12:36 AM 69.8 °F 64.4 °F 83% 29.99 in 10.0 mi WSW 8.1 mph - N/A   Scattered Clouds
12:54 AM 68.0 °F 64.0 °F 87% 29.96 in 10.0 mi South 3.5 mph - N/A   Partly Cloudy
1:54 AM 66.0 °F 63.0 °F 90% 29.95 in 10.0 mi WNW 8.1 mph - N/A   Partly Cloudy
2:54 AM 64.9 °F 63.0 °F 93% 29.96 in 10.0 mi WSW 3.5 mph - N/A   Partly Cloudy
3:54 AM 64.9 °F 62.1 °F 90% 29.94 in 10.0 mi Calm Calm - N/A   Partly Cloudy
4:54 AM 64.9 °F 62.1 °F 90% 29.93 in 10.0 mi Calm Calm - N/A   Partly Cloudy
5:54 AM 63.0 °F 61.0 °F 93% 29.95 in 6.0 mi Calm Calm - N/A Fog Shallow Fog
6:54 AM 62.1 °F 61.0 °F 96% 29.96 in 10.0 mi SSE 4.6 mph - N/A   Partly Cloudy
7:54 AM 64.9 °F 63.0 °F 93% 30.00 in 10.0 mi Variable 5.8 mph - N/A   Mostly Cloudy
8:54 AM 66.0 °F 63.0 °F 90% 29.99 in 10.0 mi SE 5.8 mph - N/A   Overcast
9:21 AM 68.0 °F 64.4 °F 88% 30.02 in 10.0 mi SSE 8.1 mph - N/A   Mostly Cloudy
9:54 AM 68.0 °F 64.0 °F 87% 30.00 in 10.0 mi SSE 5.8 mph - N/A   Overcast
10:54 AM 69.1 °F 64.9 °F 87% 29.99 in 10.0 mi SE 5.8 mph - N/A   Overcast
11:54 AM 70.0 °F 66.0 °F 87% 29.99 in 10.0 mi SSE 4.6 mph - N/A   Overcast
12:54 PM 73.0 °F 66.9 °F 81% 29.97 in 10.0 mi SSE 8.1 mph - N/A   Overcast
1:05 PM 73.4 °F 66.2 °F 78% 30.00 in 10.0 mi South 6.9 mph - N/A   Mostly Cloudy
1:28 PM 75.2 °F 68.0 °F 78% 29.99 in 10.0 mi South 9.2 mph - N/A   Mostly Cloudy
1:54 PM 73.9 °F 66.9 °F 79% 29.96 in 10.0 mi South 8.1 mph - N/A   Mostly Cloudy
2:54 PM 75.9 °F 66.9 °F 74% 29.93 in 10.0 mi South 9.2 mph - N/A   Mostly Cloudy
3:54 PM 75.9 °F 66.0 °F 71% 29.91 in 10.0 mi South 6.9 mph - N/A   Mostly Cloudy
4:34 PM 75.2 °F 66.2 °F 73% 29.94 in 10.0 mi SSE 10.4 mph - N/A   Mostly Cloudy
4:54 PM 77.0 °F 66.9 °F 71% 29.91 in 10.0 mi South 4.6 mph - N/A   Mostly Cloudy
5:54 PM 77.0 °F 68.0 °F 74% 29.91 in 10.0 mi South 10.4 mph - N/A   Mostly Cloudy
6:54 PM 75.0 °F 68.0 °F 79% 29.91 in 10.0 mi SSE 5.8 mph - N/A   Scattered Clouds
7:54 PM 75.0 °F 69.1 °F 82% 29.91 in 10.0 mi SSE 8.1 mph - N/A   Mostly Cloudy
8:16 PM 75.2 °F 69.8 °F 83% 29.93 in 10.0 mi South 6.9 mph - N/A   Mostly Cloudy
8:54 PM 75.0 °F 69.1 °F 82% 29.91 in 10.0 mi SSE 10.4 mph - N/A   Mostly Cloudy
9:54 PM 73.9 °F 70.0 °F 87% 29.91 in 10.0 mi South 10.4 mph - 0.00 in   Mostly Cloudy
10:24 PM 73.4 °F 69.8 °F 88% 29.94 in 10.0 mi South 9.2 mph - N/A   Mostly Cloudy
10:54 PM 73.0 °F 69.1 °F 87% 29.92 in 10.0 mi South 8.1 mph - N/A   Overcast
11:54 PM 73.0 °F 69.1 °F 87% 29.90 in 10.0 mi SSW 9.2 mph - N/A   Mostly Cloudy